| time (UTC) | temp F | wind direction | speed MPH | gust MPH | rain 1hr in | rain 24hr in | rain mn in | humidity % | barometer mb |
| 20260503033055 | 40 | 86 | 1.0 | 4.0 | 0.00 | 0.00 | 0.00 | 78 | 1014.0 |
| 20260503031555 | 40 | 69 | 1.0 | 4.0 | 0.00 | 0.00 | 0.00 | 78 | 1014.0 |
| 20260503030101 | 40 | 61 | 1.0 | 3.0 | 0.00 | 0.00 | 0.00 | 78 | 1014.0 |
| 20260503024555 | 40 | 77 | 1.0 | 4.0 | 0.00 | 0.01 | 0.00 | 78 | 1014.1 |
| 20260503023101 | 40 | 79 | 1.0 | 4.0 | 0.00 | 0.01 | 0.00 | 78 | 1014.1 |
| 20260503021600 | 40 | 53 | 1.0 | 3.0 | 0.00 | 0.01 | 0.00 | 78 | 1014.3 |
| 20260503020101 | 40 | 73 | 1.0 | 3.0 | 0.00 | 0.01 | 0.00 | 77 | 1014.3 |
| 20260503014612 | 40 | 0 | 2.0 | 5.0 | 0.00 | 0.01 | 0.00 | 77 | 1014.2 |
| 20260503013058 | 40 | 0 | 1.0 | 4.0 | 0.00 | 0.01 | 0.00 | 77 | 1014.2 |
| 20260503011602 | 40 | 60 | 1.0 | 4.0 | 0.00 | 0.01 | 0.00 | 76 | 1014.3 |
| 20260503010103 | 41 | 78 | 2.0 | 3.0 | 0.00 | 0.01 | 0.00 | 75 | 1014.2 |
| 20260503004607 | 41 | 78 | 0.0 | 6.0 | 0.00 | 0.01 | 0.00 | 74 | 1014.1 |
| 20260503003110 | 41 | 89 | 2.0 | 5.0 | 0.00 | 0.01 | 0.00 | 74 | 1014.0 |
| 20260503001628 | 41 | 92 | 2.0 | 7.0 | 0.00 | 0.01 | 0.00 | 74 | 1013.8 |
| 20260503000121 | 42 | 70 | 3.0 | 8.0 | 0.00 | 0.01 | 0.00 | 73 | 1013.8 |
| 20260502234607 | 42 | 66 | 4.0 | 8.0 | 0.00 | 0.01 | 0.00 | 73 | 1013.7 |
| 20260502233057 | 42 | 97 | 4.0 | 7.0 | 0.00 | 0.01 | 0.00 | 74 | 1013.6 |
| 20260502231556 | 43 | 96 | 2.0 | 6.0 | 0.00 | 0.01 | 0.00 | 73 | 1013.6 |
| 20260502230056 | 44 | 53 | 2.0 | 6.0 | 0.00 | 0.01 | 0.00 | 70 | 1013.6 |
| 20260502224555 | 43 | 101 | 0.0 | 4.0 | 0.00 | 0.02 | 0.00 | 66 | 1013.4 |
| 20260502223055 | 43 | 95 | 1.0 | 6.0 | 0.00 | 0.02 | 0.00 | 65 | 1013.5 |
| 20260502221556 | 43 | 103 | 2.0 | 7.0 | 0.00 | 0.02 | 0.00 | 65 | 1013.5 |
| 20260502220055 | 43 | 71 | 1.0 | 6.0 | 0.00 | 0.02 | 0.00 | 68 | 1013.6 |
| 20260502214556 | 43 | 98 | 3.0 | 6.0 | 0.00 | 0.04 | 0.00 | 66 | 1013.6 |
| 20260502213106 | 43 | 94 | 1.0 | 4.0 | 0.00 | 0.04 | 0.00 | 67 | 1013.3 |
| 20260502211556 | 43 | 108 | 2.0 | 8.0 | 0.00 | 0.04 | 0.00 | 67 | 1013.3 |
| 20260502210055 | 42 | 104 | 2.0 | 4.0 | 0.00 | 0.04 | 0.00 | 71 | 1013.3 |
| 20260502204602 | 42 | 0 | 0.0 | 4.0 | 0.00 | 0.04 | 0.00 | 73 | 1013.5 |
| 20260502203103 | 42 | 104 | 0.0 | 4.0 | 0.00 | 0.04 | 0.00 | 73 | 1013.5 |
| 20260502201557 | 42 | 130 | 2.0 | 6.0 | 0.00 | 0.04 | 0.00 | 73 | 1013.5 |
| 20260502200124 | 42 | 132 | 3.0 | 6.0 | 0.00 | 0.04 | 0.00 | 71 | 1013.6 |
| 20260502194608 | 43 | 127 | 3.0 | 7.0 | 0.00 | 0.04 | 0.00 | 70 | 1013.6 |
| 20260502193057 | 43 | 139 | 3.0 | 8.0 | 0.00 | 0.04 | 0.00 | 71 | 1013.7 |
| 20260502191607 | 43 | 132 | 2.0 | 5.0 | 0.00 | 0.04 | 0.00 | 74 | 1013.7 |
| 20260502190057 | 43 | 126 | 2.0 | 6.0 | 0.00 | 0.04 | 0.00 | 73 | 1013.8 |
| 20260502184559 | 44 | 125 | 3.0 | 7.0 | 0.00 | 0.04 | 0.00 | 73 | 1013.7 |
| 20260502183059 | 44 | 120 | 2.0 | 6.0 | 0.00 | 0.04 | 0.00 | 70 | 1013.5 |
| 20260502181555 | 45 | 141 | 3.0 | 7.0 | 0.00 | 0.04 | 0.00 | 69 | 1013.6 |
| 20260502163055 | 45 | 111 | 4.0 | 9.0 | 0.00 | 0.04 | 0.00 | 66 | 1013.5 |
| 20260502161554 | 44 | 154 | 3.0 | 12.0 | 0.00 | 0.04 | 0.00 | 69 | 1013.5 |
| 20260502160105 | 44 | 148 | 3.0 | 8.0 | 0.00 | 0.04 | 0.00 | 68 | 1013.6 |
| 20260502151609 | 45 | 91 | 9.0 | 17.0 | 0.00 | 0.04 | 0.00 | 55 | 1013.6 |
| 20260502150127 | 45 | 92 | 6.0 | 14.0 | 0.00 | 0.04 | 0.00 | 57 | 1013.6 |
| 20260502130107 | 41 | 88 | 6.0 | 12.0 | 0.00 | 0.04 | 0.00 | 76 | 1014.4 |
| 20260502123055 | 40 | 75 | 4.0 | 9.0 | 0.00 | 0.04 | 0.00 | 82 | 1014.6 |
| 20260502121602 | 39 | 84 | 6.0 | 16.0 | 0.00 | 0.04 | 0.00 | 82 | 1014.5 |
| 20260502120113 | 38 | 95 | 6.0 | 12.0 | 0.00 | 0.04 | 0.00 | 84 | 1014.5 |
| 20260502114558 | 38 | 32 | 4.0 | 11.0 | 0.00 | 0.04 | 0.00 | 85 | 1014.5 |
| 20260502113113 | 37 | 70 | 6.0 | 10.0 | 0.00 | 0.04 | 0.00 | 86 | 1014.4 |
| 20260502111605 | 37 | 68 | 3.0 | 7.0 | 0.00 | 0.04 | 0.00 | 87 | 1014.3 |
| 20260502110104 | 36 | 91 | 3.0 | 7.0 | 0.00 | 0.04 | 0.00 | 88 | 1014.3 |
| 20260502104555 | 35 | 73 | 3.0 | 7.0 | 0.00 | 0.04 | 0.00 | 89 | 1014.1 |
| 20260502103112 | 35 | 77 | 2.0 | 6.0 | 0.00 | 0.04 | 0.00 | 89 | 1013.9 |
| 20260502101607 | 36 | 85 | 3.0 | 8.0 | 0.00 | 0.04 | 0.00 | 88 | 1013.9 |
| 20260502090110 | 37 | 60 | 2.0 | 6.0 | 0.00 | 0.04 | 0.00 | 85 | 1013.2 |
| 20260502080104 | 39 | 94 | 1.0 | 4.0 | 0.00 | 0.04 | 0.00 | 92 | 1012.5 |
| 20260502070101 | 40 | 66 | 2.0 | 4.0 | 0.00 | 0.04 | 0.00 | 94 | 1012.2 |
| 20260502064554 | 40 | 54 | 2.0 | 5.0 | 0.00 | 0.04 | 0.00 | 94 | 1012.3 |
| 20260502063115 | 40 | 78 | 1.0 | 4.0 | 0.00 | 0.04 | 0.00 | 94 | 1012.3 |
| 20260502061558 | 40 | 70 | 2.0 | 4.0 | 0.00 | 0.04 | 0.00 | 94 | 1012.4 |
| 20260502060107 | 40 | 78 | 1.0 | 4.0 | 0.00 | 0.04 | 0.00 | 94 | 1012.5 |
| 20260502054613 | 40 | 82 | 2.0 | 5.0 | 0.00 | 0.04 | 0.00 | 94 | 1012.6 |
| 20260502053101 | 40 | 81 | 1.0 | 2.0 | 0.00 | 0.04 | 0.00 | 94 | 1012.5 |
| 20260502051556 | 39 | 81 | 0.0 | 3.0 | 0.00 | 0.04 | 0.00 | 94 | 1012.6 |
| 20260502050054 | 38 | 81 | 0.0 | 3.0 | 0.00 | 0.04 | 0.00 | 94 | 1012.7 |
| 20260502044556 | 37 | 110 | 0.0 | 1.0 | 0.00 | 0.04 | 0.00 | 93 | 1012.6 |
| 20260502043105 | 37 | 0 | 0.0 | 0.0 | 0.00 | 0.04 | 0.00 | 92 | 1012.5 |
| 20260502041554 | 37 | 0 | 0.0 | 0.0 | 0.00 | 0.04 | 0.00 | 92 | 1012.6 |
| 20260502040101 | 37 | 0 | 0.0 | 0.0 | 0.00 | 0.04 | 0.00 | 92 | 1012.6 |
| 20260502034557 | 37 | 0 | 0.0 | 0.0 | 0.00 | 0.04 | 0.04 | 91 | 1012.6 |